Tracking 19638 objects as of 20-May-2019
HD Live streaming from Space Station
objects crossing your sky now

MIDAS 3

Track MIDAS 3 now!
10-day predictions
MIDAS 3 is classified as:


NORAD ID: 163
Int'l Code: 1961-018A
Perigee: 3,351.1 km
Apogee: 3,551.4 km
Inclination: 91.2 °
Period: 161.5 minutes
Semi major axis: 9822 km
RCS: 10.0428 m2 (large)
Launch date: July 12, 1961
Source: United States (US)
Launch site: AIR FORCE WESTERN TEST RANGE (AFWTR)
aabbcc
Your satellite tracking list
Your tracking list is empty




NASA's NSSDC Master Catalog

Two Line Element Set (TLE):
1   163U 61018A   19139.08560877 -.00000007  00000-0 -28927-2 0  9999
2   163  91.2082  91.3572 0101943 112.7223 248.4462  8.91834997883712
Source of the keplerian elements: AFSPC